User: anonymous   Login
Location: Wawayanda State Park
(41.1833°N, 74.4333°W)
Time: 14:28:23
(UTC-04:00)
Language:

RESURS DK-1 - Orbit

View from above orbital plane
View from above orbital plane
View from above satellite
View from above satellite

Ground track
Ground track

The orbit data is extracted from the following two-line orbital elements,

1 29228U 06021A   16178.85237963  .00000080  00000-0  13554-4 0  9998
2 29228  69.9368 281.9776 0005708 194.8988 303.7068 15.01929862554748
Epoch (UTC): 26 June 2016 20:27:25
Eccentricity: 0.0005708
inclination: 69.9368°
perigee height: 557 km
apogee height: 565 km
right ascension of ascending node: 281.9776°
argument of perigee: 194.8988°
revolutions per day: 15.01929862
mean anomaly at epoch: 303.7068°
orbit number at epoch: 55474

The dashed part of the orbit path shows where the satellite is in the earth's shadow,  

DLR